Hourly Data Report for October 06, 2020

SHEARWATER RCS
NOVA SCOTIA
Current Station Operator: ECCC - MSC

44°37'47.000" N
63°30'48.000" W
24.00 m
8205092
71264
AAW

Download Data

Hourly Data (October 2020)
Hourly Data Report for October 6, 2020
TIME Temp Definition
°C
Dew Point Definition
°C
Rel Hum Definition
%
Wind Dir Definition
10's deg

Wind Spd Definition
km/h
Visibility Definition
km
Stn Press Definition
kPa
Hmdx Definition


Wind Chill Definition


Weather Definition


00:00 9.1 8.4 96   0   101.92     LegendNANA
01:00 8.5 8.0 97 33 5   101.95     LegendNANA
02:00 8.1 7.6 97 0 1   101.95     LegendNANA
03:00 7.7 7.2 97   0   101.93     LegendNANA
04:00 7.5 7.3 98   0   101.96     LegendNANA
05:00 7.1 6.9 98 6 1   102.01     LegendNANA
06:00 6.6 6.3 98 29 3   102.03     LegendNANA
07:00 7.8 7.5 98   0   102.04     LegendNANA
08:00 10.9 10.0 94 0 1   102.09     LegendNANA
09:00 12.4 10.6 89 23 3   102.12     LegendNANA
10:00 14.7 11.1 79 15 10   102.07     LegendNANA
11:00 15.8 11.2 74 16 11   102.07     LegendNANA
12:00 15.9 10.8 72 15 16   102.01     LegendNANA
13:00 15.7 10.0 69 16 19   101.94     LegendNANA
14:00 16.0 10.4 69 16 17   101.86     LegendNANA
15:00 15.5 9.9 69 16 20   101.79     LegendNANA
16:00 15.5 9.3 67 17 16   101.74     LegendNANA
17:00 14.6 11.4 81 16 15   101.65     LegendNANA
18:00 14.4 11.7 84 15 18   101.61     LegendNANA
19:00 14.5 11.9 85 15 14   101.56     LegendNANA
20:00 14.7 12.5 87 15 16   101.52     LegendNANA
21:00 14.8 12.7 87 15 14   101.43     LegendNANA
22:00 14.1 13.1 94 18 21   101.39     LegendNANA
23:00 14.0 13.5 96 16 12   101.32     LegendNANA

Notes on Data Quality.

Legend

  • E = Estimated
  • M = Missing
  • NA = Not Available*
  • [empty] = Indicates an unobserved value
Date modified: